Wind_Speed
7 6 6 6 5 5 7 8 9 11 11 11 11 9 10 9 7 7 8 7 8 9 7 9 11 11 13 12 12 12 7 6 9 8 9 10 7 6 8 11 12 11 12 14 14 15 15 14 14 13 11 8 8 11 11 8 6 8 12 15 17 18 19 22 25 29 33 35 36 37 36 34 31 31 33 33 31 29 29 28 28 31 32 29 30 33
4 5 6 7 7 5 7 10 10 10 11 11 10 9 9 8 8 7 6 7 9 9 6 8 11 11 12 10 10 10 10 10 9 4 2 4 5 6 9 11 11 11 10 11 12 14 15 13 13 13 12 11 10 11 12 10 7 7 9 12 15 17 20 23 24 26 31 34 35 37 38 36 33 33 34 34 34 32 29 29 28 30 32 31 30 31
5 5 7 9 7 6 8 9 9 10 10 9 7 7 8 4 8 11 9 9 8 5 5 9 10 10 10 9 9 10 10 7 2 4 5 5 4 5 7 9 11 11 10 10 11 12 12 12 12 12 12 12 11 11 10 9 7 7 7 10 11 13 17 22 25 26 28 31 34 37 38 37 34 33 34 34 35 35 32 31 31 31 33 34 32 29
6 4 6 8 7 7 9 9 9 9 7 7 6 6 6 4 4 6 7 10 8 5 8 10 9 8 8 8 7 6 6 4 7 6 5 4 2 4 5 7 8 9 9 9 10 11 11 11 12 12 13 12 12 12 10 10 11 10 9 11 12 12 13 17 23 25 25 28 32 36 37 36 33 32 35 36 35 36 36 35 33 32 35 35 33 30
8 0 2 7 7 8 10 9 9 7 5 7 7 6 7 6 8 7 6 9 8 7 9 8 8 7 5 6 5 3 5 7 8 8 8 6 4 5 4 4 5 7 8 8 10 10 9 11 13 13 14 14 13 13 12 13 15 13 12 13 14 14 13 12 17 23 27 27 31 34 32 32 32 32 35 37 38 38 39 39 36 34 36 36 34 32
8 3 2 8 8 8 9 8 7 4 5 8 5 6 9 9 9 9 10 9 7 7 4 3 6 4 4 5 3 2 5 7 7 6 8 6 3 4 4 6 7 8 8 9 10 10 10 12 13 14 15 16 15 14 15 15 15 14 14 14 15 15 15 14 14 19 25 25 28 32 32 32 34 34 35 37 39 39 40 41 41 38 37 38 36 34
5 1 2 8 8 8 8 7 6 3 5 7 3 5 10 12 12 11 11 9 7 6 1 2 7 3 1 3 4 3 4 7 7 2 3 5 4 7 8 8 9 11 11 10 9 10 11 13 13 14 16 17 17 17 16 16 16 15 15 15 15 14 14 15 14 14 20 23 25 30 33 35 37 38 38 37 36 36 38 41 42 42 40 40 38 36
3 2 3 6 9 8 5 5 4 3 6 5 4 6 9 11 12 12 11 8 7 6 2 3 10 5 1 4 7 8 7 6 5 2 2 5 6 7 7 7 7 9 11 12 11 12 14 15 15 15 17 18 18 19 18 17 17 16 16 15 15 13 12 14 14 14 18 22 24 26 30 35 39 39 40 38 33 34 37 38 41 42 42 43 41 38
4 6 5 6 9 6 3 5 4 5 6 6 7 9 8 10 11 10 9 8 7 7 4 4 9 6 1 4 5 5 5 4 2 2 3 5 6 6 6 6 6 7 9 10 12 14 15 18 19 18 18 19 20 21 20 18 17 17 16 16 15 12 10 12 14 14 17 19 23 25 26 31 37 39 41 39 34 34 35 36 38 40 43 45 43 41
1 4 7 7 7 5 5 6 6 5 6 8 10 10 9 9 10 9 8 7 5 6 6 5 7 3 1 3 2 2 1 2 3 1 4 4 4 5 6 7 10 12 13 13 13 14 14 17 20 20 21 22 22 22 21 19 18 17 17 16 15 13 10 10 11 14 17 18 21 25 27 29 33 37 41 39 36 35 34 35 36 36 40 43 42 41
2 1 5 7 7 7 8 8 8 7 7 9 9 10 10 7 6 7 6 6 6 5 6 6 7 6 3 4 2 1 1 2 3 1 3 3 5 6 5 6 11 15 17 17 18 19 19 19 20 21 23 24 24 23 22 21 20 19 18 17 16 14 13 10 10 13 16 16 19 24 27 29 31 36 41 43 40 38 36 36 37 36 38 39 39 38
3 3 4 6 6 8 9 10 10 10 9 9 8 7 6 3 3 4 3 4 6 6 3 4 10 11 5 3 3 4 5 3 1 2 3 3 5 4 5 3 8 11 15 16 18 20 22 22 22 23 24 24 24 24 24 24 23 22 20 18 17 16 15 12 11 12 14 15 18 22 25 28 32 35 41 45 44 41 39 37 36 36 38 39 39 39
6 6 5 5 5 6 9 7 6 7 7 8 6 5 5 2 1 3 2 3 5 5 3 5 11 9 2 5 8 8 6 4 2 3 4 3 4 3 8 6 7 10 12 14 16 19 20 22 23 24 25 25 25 25 25 25 25 24 22 20 19 18 17 15 14 12 13 15 18 21 24 28 34 37 39 43 45 43 41 39 37 37 38 40 42 43
5 5 8 7 3 4 8 6 4 4 4 6 6 6 5 3 3 4 3 1 3 5 5 9 12 5 4 6 8 8 6 6 6 5 4 2 4 3 8 12 9 12 11 12 15 18 20 21 23 24 25 25 26 26 27 27 26 25 25 23 21 20 19 18 17 14 14 15 18 20 24 27 32 37 38 39 42 42 42 43 41 38 39 41 44 47
6 4 6 6 1 2 6 6 5 7 7 7 6 6 5 4 4 5 4 2 3 4 5 10 8 2 6 6 5 7 7 7 7 5 4 2 5 5 6 11 14 15 12 13 15 17 19 22 24 25 25 26 27 28 28 28 27 27 27 26 24 22 21 20 19 17 16 16 17 19 22 26 30 36 38 38 39 40 41 44 45 42 40 42 46 49
8 5 4 3 2 3 6 5 4 7 7 5 5 5 4 4 4 5 6 5 5 4 3 6 3 3 5 7 6 8 9 6 5 3 2 3 5 7 7 9 12 14 13 15 16 17 19 22 24 25 27 27 28 29 29 29 29 29 29 27 25 23 23 22 21 20 18 18 19 19 21 25 29 34 37 39 41 40 38 40 46 46 43 43 47 51
7 4 4 4 6 6 6 5 5 5 4 4 5 4 5 5 5 6 6 3 3 4 2 2 1 4 6 8 4 4 6 5 4 3 3 5 5 6 8 9 11 12 13 15 16 18 20 22 23 25 27 28 29 30 31 31 30 30 29 27 26 25 24 24 22 22 21 19 20 20 21 23 28 32 34 37 41 41 38 38 42 46 46 47 50 52
5 5 4 9 8 5 4 7 8 8 6 5 4 4 6 5 3 4 5 2 3 5 2 1 4 3 5 4 2 2 1 3 3 4 4 5 6 6 8 10 13 14 14 15 16 18 20 22 23 25 26 28 30 31 31 31 30 30 29 27 27 26 26 25 24 23 22 21 21 21 21 22 25 30 33 36 37 38 39 39 41 45 49 50 52 54
6 6 6 10 7 2 2 6 8 7 8 8 6 5 5 4 3 2 2 3 4 5 3 3 3 1 1 0 1 4 2 2 3 4 5 5 7 8 9 11 13 14 15 16 17 18 20 22 23 25 26 28 30 32 31 31 31 31 31 29 28 27 26 26 26 24 23 22 22 22 22 21 23 28 33 34 34 36 40 42 42 45 49 51 52 54
5 6 5 7 6 1 2 5 5 4 6 8 6 5 3 3 5 3 2 4 4 4 4 4 3 1 1 2 5 4 1 3 2 3 4 5 8 10 10 10 12 14 15 15 17 18 20 21 23 24 26 27 30 32 32 31 31 31 32 31 29 28 27 27 26 24 24 23 22 23 23 23 21 24 30 32 33 36 40 43 45 47 48 49 51 53
5 5 5 6 5 3 4 2 3 5 5 5 4 5 4 4 5 4 4 5 4 4 4 5 4 1 3 5 5 0 2 2 3 4 4 6 8 10 9 10 12 13 14 15 17 19 20 21 22 23 25 27 29 30 31 31 30 30 31 31 30 30 28 27 26 24 25 24 24 23 24 24 22 22 26 30 33 35 37 41 46 49 49 48 49 51
3 4 5 7 4 5 6 1 4 7 6 5 5 5 6 5 5 5 5 4 4 4 4 5 6 0 3 2 1 3 2 3 4 5 5 7 9 9 10 11 12 13 14 16 17 18 20 21 22 23 26 28 29 30 30 30 30 30 30 30 31 30 29 28 27 26 26 25 25 24 24 24 24 23 23 28 33 34 35 39 44 47 48 48 46 47
5 4 6 7 6 9 10 5 2 6 8 8 7 5 6 5 4 5 5 4 5 6 5 6 7 1 3 2 1 1 1 2 4 5 5 7 8 9 11 12 12 13 14 15 16 17 19 21 22 23 26 28 29 31 31 30 31 30 30 30 30 30 29 28 27 27 27 26 24 24 25 25 25 25 23 25 30 34 35 37 42 45 46 45 43 44
4 4 5 6 7 9 10 5 2 4 7 7 7 6 6 5 5 6 6 5 5 7 6 6 6 1 3 3 2 2 1 3 4 5 5 6 9 10 11 11 12 13 15 15 15 16 18 21 22 23 27 28 30 31 31 31 32 32 31 30 30 30 29 28 27 27 26 25 25 25 25 26 25 25 25 24 27 33 35 34 35 38 40 40 42 45
4 4 3 5 7 6 5 2 2 3 3 3 5 7 7 8 9 8 7 5 6 7 6 5 5 1 3 3 2 2 4 4 4 5 5 6 8 10 10 9 10 13 15 15 15 16 19 20 21 24 27 28 29 31 31 31 32 32 30 29 29 29 29 28 28 27 26 25 25 25 26 25 25 25 25 24 24 29 33 33 31 31 32 35 39 43
5 5 5 5 6 6 4 2 3 3 2 2 5 8 10 10 10 9 6 5 6 7 6 6 6 3 4 4 3 4 4 3 2 3 5 7 8 10 10 8 10 13 15 15 15 16 18 20 21 24 26 27 29 30 30 30 31 31 30 29 28 28 29 29 28 27 26 26 25 25 26 25 24 25 25 23 23 26 29 30 28 27 28 31 34 37
5 6 7 8 7 8 9 9 8 8 8 8 9 11 12 11 10 9 6 6 7 7 7 7 7 7 6 4 5 6 4 4 3 4 5 7 9 11 10 8 9 13 15 16 15 16 18 20 22 24 25 27 28 28 28 29 30 31 32 32 29 28 29 28 27 27 27 25 24 23 24 24 23 24 24 23 24 25 25 26 26 26 26 29 33 36
4 7 8 9 10 11 13 14 13 11 11 12 13 13 13 12 11 10 9 10 8 7 8 7 7 8 9 7 8 8 5 4 4 6 7 8 11 13 11 10 10 13 15 17 17 17 18 20 23 24 25 28 28 28 28 28 30 34 35 33 30 28 27 26 26 27 26 24 24 23 23 23 23 23 23 23 24 24 23 23 26 26 24 26 31 35
4 7 8 9 11 13 14 14 15 13 12 13 13 14 14 13 13 12 12 13 11 8 9 10 9 10 10 8 7 6 5 4 5 6 8 11 13 13 12 11 12 13 15 17 17 18 19 21 23 24 26 28 28 29 30 28 33 40 38 33 30 27 27 26 26 26 24 23 23 22 22 23 22 22 22 21 21 22 22 21 23 26 27 27 29 33
3 5 7 10 11 13 14 15 15 14 13 13 13 14 14 14 13 13 13 14 13 13 13 14 14 11 8 8 7 4 5 6 7 8 11 13 13 11 12 12 12 14 16 17 18 19 20 21 22 23 26 26 26 30 32 32 37 43 40 33 30 28 26 25 25 25 24 23 23 22 23 23 22 21 22 20 19 21 21 18 18 20 24 27 29 33
2 4 7 9 9 11 13 13 13 12 11 13 15 15 15 14 14 13 12 12 12 13 13 13 14 10 5 4 5 5 6 8 9 10 12 12 11 10 11 12 12 15 17 18 18 19 20 21 22 24 25 25 28 33 37 40 43 46 43 36 29 25 23 23 24 24 23 23 23 22 22 21 20 20 21 19 18 20 19 16 14 16 18 22 27 31
4 5 8 8 8 9 10 12 13 11 11 14 15 15 13 12 11 10 10 10 10 11 11 9 9 7 3 3 5 7 8 8 8 9 10 11 9 9 11 12 13 15 17 18 19 19 20 21 22 24 25 26 32 37 39 42 44 46 45 36 26 22 22 24 25 24 23 22 22 22 21 19 18 18 19 17 17 19 18 15 13 14 16 19 23 26
4 5 6 7 8 8 10 13 13 11 11 10 8 6 6 7 7 7 9 9 8 9 9 7 6 5 5 6 8 8 8 8 7 8 10 10 7 7 10 12 14 16 17 19 19 20 20 20 21 23 24 27 34 38 38 39 41 44 44 35 24 20 23 26 26 24 22 21 21 20 20 19 18 18 19 17 16 18 17 14 11 11 14 15 19 24
7 7 6 6 7 8 11 13 11 10 9 5 2 3 4 5 5 6 8 9 8 7 7 7 8 7 6 8 8 7 8 7 7 10 10 5 4 6 10 13 15 16 17 18 19 19 20 20 21 23 25 28 33 35 36 37 38 42 43 37 28 24 24 26 27 24 22 21 20 20 19 19 19 19 19 17 16 17 17 14 11 11 13 14 17 22
7 7 6 6 6 7 9 9 9 8 5 2 3 5 4 3 2 5 8 9 9 8 9 10 10 8 7 7 7 8 8 9 10 10 5 5 3 7 11 14 15 16 18 19 19 20 20 20 22 24 25 28 31 33 35 37 38 41 42 39 35 29 25 26 26 24 24 23 21 20 20 20 19 18 19 18 16 15 15 15 14 12 13 14 15 19
7 6 5 6 7 7 7 6 7 7 7 9 11 7 2 3 1 5 6 7 7 8 7 8 8 7 6 6 7 8 9 10 10 5 7 6 5 9 12 14 16 16 17 19 20 20 20 19 21 24 25 27 29 31 34 36 37 40 40 39 37 34 29 26 25 23 24 23 21 21 21 21 21 20 18 17 16 15 14 14 13 12 11 12 14 17
9 7 5 6 7 7 7 7 7 8 9 10 7 3 5 3 3 4 4 7 8 9 8 7 5 4 5 6 8 8 9 11 7 4 9 6 7 9 11 13 14 16 17 19 20 20 19 20 21 22 24 26 28 30 33 35 37 39 39 38 38 37 34 30 26 23 23 23 22 22 23 23 22 22 20 16 15 14 13 12 12 12 11 11 13 14
9 8 5 4 5 5 7 7 6 8 9 5 0 3 4 4 4 3 4 6 6 4 5 4 2 2 4 5 8 8 8 9 4 5 7 9 10 10 12 13 14 16 17 18 20 19 19 20 21 21 22 25 27 28 32 34 34 36 39 37 36 38 38 36 31 25 23 24 23 22 23 23 22 22 20 17 15 13 12 12 12 12 12 13 12 11
8 7 6 5 4 5 7 7 6 7 7 3 1 3 3 4 4 1 4 3 3 5 4 3 2 3 4 6 8 8 7 6 3 2 9 15 15 13 14 14 14 16 17 19 19 18 19 20 20 20 22 24 25 27 29 31 31 33 38 38 37 38 39 38 34 28 24 24 24 24 24 23 22 21 20 19 17 15 13 12 12 12 12 13 14 12
6 5 5 5 5 6 7 8 7 5 6 7 6 1 5 6 3 3 4 1 3 5 4 3 4 5 5 6 7 6 5 5 6 9 14 17 15 14 14 14 15 16 18 19 18 17 19 19 19 20 22 23 24 25 27 28 28 31 36 36 36 37 39 39 37 32 27 25 25 24 24 23 22 22 20 19 18 16 14 12 10 10 10 12 14 14
5 5 5 6 6 6 7 8 7 5 6 9 6 5 9 5 1 5 4 1 2 4 3 3 5 5 6 7 6 5 6 7 9 12 14 14 14 14 14 14 15 16 17 18 18 18 18 19 19 20 21 22 23 25 26 26 26 29 33 33 33 36 38 39 36 32 28 26 25 25 24 24 24 23 21 19 18 17 17 15 12 12 11 12 12 14
4 4 5 6 6 6 6 7 6 5 4 4 6 11 9 1 5 3 0 2 2 4 4 4 5 6 5 6 6 6 8 9 11 12 13 14 14 14 14 15 15 16 17 18 18 18 18 18 19 20 21 22 23 23 24 25 25 28 31 31 33 36 37 35 33 32 30 26 25 25 25 25 25 24 22 20 18 17 17 16 15 15 13 12 11 12
5 5 5 6 5 5 6 7 7 5 1 5 5 4 5 3 3 5 4 3 5 6 6 6 7 6 5 4 6 8 9 10 11 12 13 13 14 14 14 15 15 16 18 18 18 18 18 18 19 20 21 22 22 23 23 23 25 28 31 33 36 36 33 30 31 33 31 25 23 25 27 27 27 25 23 21 18 17 17 16 15 15 14 13 12 11
5 5 6 5 4 5 6 6 3 2 2 2 2 4 5 7 9 8 6 6 7 7 8 9 8 5 3 4 7 9 10 10 11 12 13 14 14 14 13 14 15 16 16 17 17 17 17 18 19 20 20 21 22 22 22 22 24 27 30 35 37 34 29 27 29 30 27 24 24 25 28 30 29 25 24 22 20 18 16 14 13 13 13 12 12 11
3 5 5 5 4 5 6 7 8 11 12 11 10 10 11 13 13 11 10 11 10 10 9 9 8 6 3 4 8 9 9 10 11 13 14 14 14 14 13 14 14 14 14 16 17 16 16 17 18 19 20 20 21 21 20 22 24 25 30 36 37 32 27 27 29 28 26 26 26 26 28 31 28 24 24 24 24 21 17 15 14 13 10 9 9 11
9 9 7 5 6 8 10 13 16 17 16 15 14 13 13 13 12 12 14 14 13 12 10 10 10 7 4 5 7 8 9 10 12 13 13 13 13 14 14 13 13 13 14 15 16 16 16 16 17 18 19 19 20 19 19 21 23 25 30 35 33 27 24 27 29 28 26 27 27 27 30 31 27 24 24 25 23 20 16 15 15 14 13 11 11 12
7 6 4 6 9 8 7 10 13 14 13 14 17 17 17 16 14 14 13 13 13 13 11 10 9 7 5 6 8 9 9 10 12 13 13 13 13 14 14 13 13 14 14 14 15 15 16 16 17 18 18 19 19 18 19 21 22 25 31 32 26 23 25 29 30 29 27 27 28 29 32 31 27 25 26 25 22 19 18 17 15 14 15 14 12 13
4 6 4 8 9 8 8 12 16 18 18 19 20 20 19 18 16 13 12 13 13 12 9 8 8 7 7 7 7 7 8 10 11 12 12 12 13 13 13 12 12 11 12 12 14 15 15 15 16 17 17 17 18 18 18 20 22 25 30 29 23 23 29 31 30 29 28 28 28 30 32 30 26 25 26 23 22 20 20 19 15 12 14 15 12 11
9 7 8 10 9 9 11 14 17 18 17 17 18 18 15 12 12 12 11 12 13 12 9 8 9 8 7 6 6 6 8 9 9 10 11 11 11 12 12 11 10 9 10 12 12 13 14 15 15 16 16 16 17 17 18 19 22 25 27 25 23 25 29 30 30 31 31 31 30 31 32 30 26 24 23 21 21 22 24 23 19 13 10 9 7 4
10 8 8 9 9 8 9 11 13 11 9 12 16 17 15 14 14 13 12 11 12 11 8 8 10 9 8 7 7 7 8 9 10 10 9 8 10 12 12 9 7 8 9 10 11 12 13 14 14 14 15 15 15 17 18 19 21 24 23 22 23 26 28 28 30 31 32 33 33 32 32 30 26 22 20 17 16 18 20 22 23 22 17 13 10 9
12 10 10 9 9 10 13 18 18 12 8 13 18 19 17 17 17 17 14 11 11 11 9 9 10 10 9 9 8 8 9 11 12 10 6 6 8 10 8 7 7 8 8 9 10 12 12 13 12 13 14 14 14 16 17 17 19 20 19 19 23 26 26 27 29 30 31 33 33 32 32 31 27 23 19 15 12 12 12 13 16 20 22 19 14 12
Wind_Direction
236 256 260 264 266 266 278 296 303 302 302 297 290 284 280 277 270 266 274 270 247 245 239 245 258 260 260 266 270 274 278 259 257 259 264 272 282 313 353 4 6 12 5 354 350 348 348 348 346 345 347 349 341 327 314 314 327 318 301 282 266 252 243 237 233 230 226 225 223 220 220 219 217 217 219 218 213 210 208 205 199 202 207 208 205 202
270 262 285 297 297 311 311 306 301 292 289 282 278 281 278 280 298 299 296 296 268 247 245 251 260 263 255 253 259 263 259 252 251 251 280 345 7 1 3 7 7 7 360 350 346 345 343 339 339 342 344 345 338 322 323 327 309 309 320 300 274 259 252 246 241 235 230 229 227 224 222 220 216 213 215 219 215 210 210 209 203 203 210 213 210 207
253 257 279 285 299 321 303 286 281 281 284 281 276 275 275 302 334 318 295 283 271 246 260 267 264 267 266 259 250 243 241 240 183 104 85 54 25 19 12 8 6 359 354 352 344 339 339 335 335 342 345 344 340 332 334 333 305 287 300 308 298 279 267 255 247 241 236 236 233 228 224 223 222 219 219 223 220 213 210 211 208 208 213 215 213 212
256 247 256 271 297 304 288 282 271 269 270 269 265 267 276 272 275 284 271 260 256 250 262 270 273 272 271 269 259 233 211 151 119 124 116 105 71 55 36 13 6 350 342 345 340 332 331 335 336 340 342 339 338 340 334 321 315 308 297 304 304 293 283 262 249 245 244 243 238 232 227 226 228 229 230 231 228 219 213 211 208 209 215 216 216 216
279 193 160 267 285 285 284 284 267 263 274 276 273 277 285 267 246 257 271 264 267 272 267 278 282 276 301 310 289 209 161 134 134 144 127 116 120 104 76 23 0 336 337 341 333 326 331 337 336 337 340 339 338 337 331 323 323 322 312 309 303 297 294 277 255 246 243 245 245 240 233 229 228 232 237 238 236 228 218 214 209 207 214 216 216 216
278 40 29 275 276 271 267 274 274 279 291 288 298 300 298 301 294 293 293 287 284 277 269 292 276 274 340 315 272 185 161 138 130 135 126 127 118 81 51 16 346 325 334 340 328 325 336 338 335 338 338 338 338 333 330 327 324 324 321 317 312 305 298 291 276 251 241 243 248 244 237 234 232 233 235 236 237 234 226 221 212 206 210 214 214 214
271 74 315 284 287 270 265 289 308 322 290 289 348 337 306 304 300 293 288 282 276 277 258 252 260 258 355 254 197 191 197 142 129 141 126 113 59 33 22 5 344 334 335 333 327 329 337 334 332 337 337 336 336 331 330 327 323 323 323 321 318 315 307 297 286 261 247 242 240 240 239 238 237 237 235 234 235 232 227 224 215 208 207 210 211 211
286 243 243 269 272 266 270 290 305 319 289 289 351 336 312 306 297 289 285 275 274 281 257 245 264 260 195 228 207 198 196 142 130 172 95 71 48 27 13 357 340 337 332 332 341 344 343 341 338 338 334 333 332 329 329 327 325 324 323 323 322 320 318 304 288 270 256 246 237 236 240 240 239 240 238 235 234 229 226 224 218 213 209 207 208 209
235 255 278 279 269 273 286 286 312 325 290 292 333 329 314 305 295 287 280 271 273 276 265 251 256 258 210 220 221 202 180 147 160 177 72 46 33 18 359 349 343 344 337 333 340 338 338 341 343 342 336 331 330 328 328 326 325 324 322 323 322 321 322 312 297 275 260 254 243 234 237 242 241 240 239 236 233 231 233 231 225 220 214 210 209 208
205 262 308 302 275 294 319 314 320 307 284 302 324 314 289 281 282 282 281 277 279 270 262 253 238 238 100 181 191 23 81 164 220 166 71 43 26 16 355 349 356 0 356 351 349 347 346 343 338 337 334 331 329 328 325 324 324 324 323 323 320 320 318 313 305 284 268 265 254 238 235 241 239 238 239 236 230 229 232 234 233 228 220 214 211 210
38 292 303 283 272 313 319 300 284 258 271 297 298 286 278 284 287 281 285 289 284 259 248 257 250 235 199 170 138 67 136 188 226 148 74 38 32 24 351 0 10 2 357 357 355 355 356 351 342 336 332 328 327 327 324 322 323 322 322 322 318 315 314 310 303 290 280 274 265 251 242 239 238 239 237 233 232 232 229 229 231 231 226 219 214 212
269 244 250 239 251 303 295 282 273 245 248 269 270 272 281 321 310 262 264 268 260 256 253 259 251 244 227 151 140 180 188 180 201 70 59 26 29 6 313 7 48 13 356 358 354 351 353 350 345 339 332 328 325 324 323 322 322 321 322 322 316 312 312 307 297 289 285 278 270 264 255 245 242 241 237 234 236 237 233 229 228 229 228 224 219 215
265 245 247 238 220 267 277 289 288 246 242 265 275 280 284 323 320 261 248 235 250 270 300 268 252 249 212 141 158 170 165 138 94 57 59 18 0 335 310 327 70 48 4 359 356 351 349 345 342 337 332 330 326 323 322 321 321 321 321 318 314 312 308 304 299 291 283 278 272 267 261 251 243 241 239 237 237 238 236 233 230 231 231 229 225 220
254 223 234 246 203 232 267 297 309 285 293 296 298 305 308 318 301 286 274 231 289 299 289 269 259 232 130 136 148 152 143 125 116 100 89 19 332 346 322 323 21 47 15 1 359 351 346 342 339 336 333 331 328 325 322 320 319 319 319 316 313 311 306 302 299 292 284 279 276 267 260 254 246 242 242 240 238 237 237 237 234 235 237 234 230 225
284 250 219 240 237 205 259 294 313 307 303 295 296 301 318 330 301 307 321 317 314 295 254 253 257 183 143 149 136 142 139 123 118 110 101 59 348 2 350 337 6 26 13 5 360 349 345 342 338 336 333 330 328 326 323 320 318 316 316 316 313 309 306 303 299 293 288 282 280 274 263 256 250 246 244 244 244 242 240 239 236 234 238 237 232 228
288 280 152 179 276 264 270 300 315 303 296 297 308 305 325 334 297 296 305 311 317 305 264 244 252 79 136 169 167 154 143 131 124 99 70 67 19 2 7 356 2 10 5 1 353 345 343 340 338 336 332 330 329 327 324 321 319 316 314 313 312 309 306 303 299 294 289 283 281 281 272 260 252 249 246 244 246 247 244 241 237 236 238 240 236 231
287 303 111 181 234 245 271 308 314 298 299 312 316 302 300 310 315 302 289 311 314 283 286 260 254 91 135 166 171 160 143 125 94 64 34 39 28 7 9 360 353 359 2 358 347 340 339 337 336 335 333 331 329 327 324 322 319 317 314 312 309 308 306 303 300 295 290 286 283 283 281 271 258 251 248 246 247 246 244 242 240 238 239 239 238 233
297 303 287 266 252 217 253 291 287 271 267 291 314 294 280 292 337 315 290 325 306 280 300 279 248 195 176 173 32 333 161 91 47 29 26 21 7 2 9 358 349 351 355 353 343 337 337 336 335 335 333 331 329 326 324 322 320 316 314 314 311 308 306 304 301 296 291 288 286 283 283 280 268 257 252 251 250 246 244 242 241 240 239 238 235 234
311 294 284 283 278 148 183 267 271 256 247 266 302 303 273 283 314 299 287 309 301 295 312 295 270 227 219 14 11 271 274 64 26 9 25 5 347 1 14 357 343 346 350 348 341 337 336 334 334 334 333 332 329 327 324 322 321 317 313 312 311 308 306 303 301 297 293 289 288 285 283 282 274 265 259 257 253 247 243 241 241 240 238 237 235 234
309 289 285 289 301 346 241 264 283 290 258 252 277 290 260 284 305 300 294 293 293 294 294 298 307 77 142 212 212 233 325 52 13 9 23 352 346 5 10 348 336 344 348 343 336 334 334 334 334 335 335 333 329 327 325 321 320 318 315 313 310 307 305 303 302 299 297 293 289 286 286 285 279 270 265 262 258 253 246 241 240 240 238 238 239 237
275 272 278 282 293 285 263 240 247 280 286 262 272 292 278 283 300 294 279 280 293 296 291 301 300 164 152 208 218 246 37 47 28 23 10 346 353 2 356 340 336 343 345 340 334 332 334 335 335 338 337 331 327 326 325 322 319 317 316 314 311 308 306 305 303 301 299 296 291 287 287 288 286 279 269 264 261 257 251 245 241 239 237 238 242 239
290 276 292 289 278 270 273 238 224 259 287 291 289 299 289 292 306 295 281 283 299 294 286 298 298 311 130 222 314 33 25 32 35 24 354 342 355 355 340 334 337 339 339 337 333 331 333 335 337 339 336 330 329 329 326 324 322 318 315 314 311 308 305 304 304 302 300 296 292 290 289 289 287 284 275 265 261 257 253 248 243 240 237 236 240 239
2 295 292 287 269 267 274 279 279 285 297 293 281 283 288 295 296 280 285 309 310 294 289 289 291 247 148 234 332 53 345 5 6 0 348 337 342 338 330 332 335 335 333 332 334 334 333 334 336 336 334 333 333 331 328 326 323 319 315 313 311 308 305 303 303 303 300 296 294 292 290 289 288 288 283 272 263 260 257 250 243 244 245 240 237 239
353 272 268 279 272 265 260 264 290 284 296 296 280 282 289 284 283 282 293 308 294 291 300 293 289 258 161 206 195 188 286 343 347 350 341 326 329 328 331 336 331 329 328 329 338 339 332 333 333 332 333 334 332 331 329 327 324 321 315 312 310 308 306 304 303 304 301 297 298 295 290 289 290 290 290 282 270 265 263 258 253 253 254 249 243 241
329 277 279 285 283 266 234 227 273 261 292 315 287 293 293 282 285 287 287 285 270 281 294 285 289 294 176 209 235 293 313 331 342 337 325 324 326 324 333 337 326 324 324 328 340 338 331 333 332 330 332 332 332 333 330 327 326 324 319 313 310 308 306 304 303 305 303 300 301 299 292 290 292 293 294 293 286 274 267 267 269 265 256 252 248 243
301 290 294 283 280 276 260 288 325 307 304 276 265 277 278 275 280 283 284 280 271 284 291 275 286 287 211 220 281 303 305 327 341 324 322 325 320 322 335 339 327 324 320 327 342 338 334 338 334 332 335 334 333 333 330 328 328 328 323 317 312 309 307 305 304 306 303 301 302 300 295 292 294 297 297 298 297 285 273 270 274 271 260 254 249 242
284 276 271 268 271 278 286 301 317 315 300 288 282 279 274 270 271 273 271 267 273 294 287 265 273 282 273 288 317 317 336 0 345 346 344 329 318 324 335 337 331 325 320 328 340 338 338 339 333 334 338 337 334 332 332 332 329 326 324 319 315 311 309 307 306 305 303 301 302 301 299 295 296 300 302 303 302 293 283 275 271 268 263 255 248 243
259 267 263 268 271 274 283 289 292 290 283 283 286 284 281 277 269 264 260 264 278 290 275 274 295 297 298 319 324 324 350 1 338 351 346 324 319 325 329 329 327 322 321 328 334 336 339 335 331 334 336 335 334 333 334 335 334 332 325 318 315 313 311 309 307 305 302 301 303 304 303 300 300 304 305 307 305 298 292 282 269 263 262 253 247 246
263 275 271 276 276 274 277 278 276 275 273 277 282 281 280 277 269 263 260 263 268 269 270 286 298 291 295 311 314 326 354 345 340 348 331 318 324 330 328 326 325 321 323 330 332 334 336 332 330 333 333 334 335 334 336 337 339 340 334 322 317 315 312 310 309 308 305 302 303 305 305 304 304 303 304 307 307 299 296 292 274 263 261 256 248 246
293 275 269 276 278 278 280 279 279 282 284 285 284 278 277 276 271 267 264 265 265 264 272 282 281 277 290 308 313 342 350 329 327 330 324 325 333 333 324 322 326 324 325 331 333 332 332 331 330 330 331 334 334 336 340 341 341 342 339 330 321 317 315 314 312 310 308 305 306 304 305 307 303 302 308 314 313 303 296 295 281 262 254 249 244 240
237 266 287 291 286 283 283 281 282 289 295 293 287 282 280 277 274 269 265 266 266 265 273 284 286 283 284 294 305 326 328 319 323 328 328 331 333 325 318 321 328 327 327 331 332 330 330 329 328 328 329 330 330 333 340 344 344 343 341 335 328 324 326 326 318 313 310 310 308 305 305 308 305 308 317 321 321 314 304 297 282 257 243 242 242 238
193 255 289 290 283 284 286 285 288 295 295 287 282 283 282 277 277 281 277 272 269 271 275 278 281 283 293 316 314 320 321 319 328 335 330 329 331 323 318 322 327 326 328 331 331 331 332 330 329 330 330 328 329 333 338 342 344 344 344 341 336 337 343 339 327 317 313 312 310 307 308 311 313 317 322 324 327 322 312 305 284 252 239 244 246 242
238 270 287 286 285 288 290 294 302 306 297 286 280 287 297 294 294 298 295 290 288 282 275 268 271 289 318 322 315 319 323 324 336 336 323 325 340 337 325 324 326 328 330 332 333 335 335 333 331 332 331 329 332 335 338 341 343 344 347 348 345 345 348 341 328 320 317 315 312 311 312 315 318 321 321 321 328 327 319 310 288 251 241 251 253 248
267 274 283 283 283 286 291 299 303 293 285 283 219 219 265 285 292 297 297 298 296 282 269 266 274 289 308 312 311 312 315 325 333 323 320 341 9 336 325 325 328 332 331 331 333 333 333 332 330 330 331 330 333 337 339 342 342 343 348 354 355 352 346 336 328 325 322 321 320 320 320 322 322 323 323 321 325 331 329 316 292 261 248 249 249 248
260 263 270 273 272 277 287 294 286 274 279 310 268 257 246 220 261 304 298 292 288 281 275 273 276 288 300 300 300 304 313 327 327 322 348 59 24 324 323 326 329 332 331 330 333 334 335 334 329 330 332 331 333 338 339 341 342 342 346 352 356 355 346 335 330 328 326 324 324 322 323 326 325 325 328 326 321 325 331 326 309 280 257 247 244 244
244 246 257 267 268 269 274 273 267 275 303 311 300 307 58 118 335 324 304 299 304 295 286 282 284 299 307 295 299 316 327 323 319 355 62 59 346 327 326 327 330 332 331 332 333 335 338 336 331 330 331 332 335 337 337 339 342 341 342 347 352 355 351 340 332 329 328 326 324 321 323 327 328 328 330 329 325 324 328 330 320 298 276 260 249 246
241 239 237 251 263 270 273 269 269 281 296 301 303 0 60 55 5 358 314 299 297 283 278 285 286 291 293 295 312 328 328 312 305 82 77 27 347 343 335 332 334 332 331 331 330 332 335 336 333 329 329 333 336 336 336 339 341 340 339 343 349 352 352 347 339 331 328 329 327 326 326 327 328 327 326 326 327 324 317 316 319 318 309 287 263 256
250 252 246 251 263 274 277 274 273 278 281 281 7 69 50 48 61 46 306 294 295 284 289 302 305 297 299 314 324 324 319 309 286 124 77 13 358 350 337 334 333 327 328 330 329 332 336 334 332 330 328 332 335 336 337 339 339 338 337 339 346 350 350 349 346 339 332 331 332 330 328 327 326 326 325 320 315 309 300 297 301 306 310 303 289 275
252 259 263 266 267 268 269 268 268 269 271 284 81 120 114 91 82 358 285 297 20 41 36 7 330 324 323 326 325 317 311 308 295 29 13 356 347 338 331 332 331 326 326 329 330 334 336 334 331 330 330 332 334 336 338 338 339 337 334 336 342 346 346 347 348 346 339 334 333 331 329 327 325 323 320 312 304 299 296 293 290 291 296 300 299 288
238 247 251 249 249 250 251 255 265 268 275 302 312 234 134 109 87 296 282 301 33 27 32 10 331 327 328 324 319 314 313 314 314 329 340 338 331 328 329 331 331 327 325 329 334 335 334 334 333 331 331 333 335 336 337 338 339 335 333 335 338 341 343 343 344 346 342 334 332 331 330 329 326 322 318 313 309 305 298 289 281 278 277 283 289 289
227 227 231 236 243 246 246 251 263 269 282 304 319 112 116 107 297 289 289 317 14 354 0 357 330 321 324 323 316 310 314 318 316 317 323 324 323 325 327 326 327 326 325 329 335 335 334 335 334 331 331 333 335 337 337 339 339 335 333 335 336 338 340 339 340 345 345 337 333 333 332 330 328 326 323 320 313 305 297 288 278 267 259 262 274 282
236 218 224 236 239 241 245 251 259 264 294 2 74 112 121 200 289 318 262 214 306 339 330 319 313 311 317 319 306 302 309 314 315 316 319 322 322 323 324 324 325 326 326 329 334 335 335 335 332 331 332 334 336 338 338 341 341 335 332 336 338 339 339 339 342 348 347 340 335 334 334 332 332 331 330 328 323 313 304 296 285 273 262 255 258 267
274 257 249 246 239 243 251 250 255 267 344 66 82 124 154 214 304 8 12 298 313 329 315 304 302 302 315 314 296 300 308 311 314 318 318 320 322 323 323 324 326 326 327 331 335 335 335 334 332 332 334 336 339 340 340 344 342 334 332 338 341 340 344 349 348 345 342 340 337 335 336 338 340 341 340 340 339 330 318 310 297 283 270 261 256 258
290 268 265 264 250 253 252 237 243 320 16 62 316 287 265 268 291 315 319 310 319 319 305 298 295 296 319 306 290 298 309 311 315 319 320 321 321 320 322 325 326 327 329 330 332 334 335 334 332 334 337 339 340 341 343 347 343 334 333 339 341 342 351 354 346 340 341 344 340 336 340 345 349 353 354 352 350 344 335 327 315 297 281 272 268 268
280 275 291 299 281 273 271 268 286 300 298 292 294 290 283 283 287 287 282 288 300 303 297 292 290 293 303 289 288 299 307 310 314 318 320 320 319 320 324 324 325 334 338 332 329 332 334 333 332 336 339 340 341 343 346 348 344 336 336 340 343 347 353 349 344 344 348 349 346 343 347 353 360 5 6 3 0 355 345 338 336 330 317 298 280 277
285 289 292 288 282 280 273 268 272 279 286 297 302 295 286 284 285 281 278 279 284 287 288 287 287 291 288 273 284 297 303 307 314 317 318 319 318 320 324 326 334 346 343 332 329 331 333 333 335 339 341 341 343 346 348 349 346 338 337 341 347 351 350 346 348 353 352 350 352 353 355 1 9 16 16 12 7 359 347 342 344 335 318 297 272 261
296 333 324 274 277 284 274 266 275 285 300 309 304 296 290 286 281 277 275 275 276 276 279 281 281 282 273 264 277 296 305 308 314 316 318 320 320 321 324 331 341 344 337 329 330 332 333 335 338 341 342 343 347 350 350 352 347 337 338 346 352 352 349 351 356 359 355 353 357 1 4 8 15 23 24 17 7 0 354 351 346 328 317 312 286 258
311 15 340 276 271 272 270 276 284 289 293 293 289 286 286 288 289 286 277 270 267 264 270 276 269 262 264 266 275 294 304 308 315 319 321 321 319 320 326 334 337 335 332 330 330 332 336 340 342 343 344 346 350 352 354 353 344 336 343 354 356 350 352 359 5 4 1 2 4 5 9 15 21 30 31 17 4 6 8 5 358 340 334 336 318 281
295 304 289 280 280 277 274 278 280 279 279 283 288 291 293 302 314 311 296 279 266 258 260 268 262 257 259 259 263 283 299 309 314 312 313 314 314 320 328 332 332 332 332 330 330 335 342 344 344 344 346 349 353 356 358 353 342 341 352 1 357 352 358 8 14 13 11 14 13 10 13 21 28 38 44 34 23 28 35 35 33 29 15 7 1 342
282 277 272 276 277 271 271 275 278 279 281 286 294 300 303 308 309 301 294 291 282 271 263 263 262 257 249 248 258 274 289 302 304 301 301 303 309 319 324 323 325 330 329 328 331 336 342 344 345 346 348 353 357 360 1 355 347 348 358 3 1 0 5 14 21 22 22 23 21 16 17 25 32 41 52 52 40 36 39 41 42 44 44 48 62 80
260 260 266 270 270 273 280 282 285 290 284 276 281 288 292 294 292 286 281 281 278 272 266 262 262 257 250 250 260 270 280 295 308 319 322 305 305 313 312 309 320 323 320 325 333 338 342 347 348 349 352 356 358 1 2 0 358 357 357 2 7 9 13 20 25 26 28 29 27 22 23 27 32 39 47 50 42 29 23 27 40 49 50 51 60 83
Height
1482 1484 1483 1481 1480 1481 1479 1476 1475 1475 1475 1477 1476 1476 1475 1474 1472 1468 1466 1464 1464 1469 1470 1470 1471 1470 1469 1467 1464 1465 1466 1469 1472 1474 1475 1476 1476 1477 1479 1481 1481 1481 1482 1483 1483 1484 1485 1486 1487 1488 1487 1488 1488 1489 1489 1490 1491 1490 1489 1488 1488 1489 1490 1491 1493 1494 1496 1496 1497 1498 1498 1498 1498 1499 1504 1505 1505 1504 1504 1504 1505 1506 1507 1508 1509 1510
1481 1486 1484 1479 1477 1476 1477 1476 1476 1476 1476 1476 1476 1476 1474 1473 1472 1467 1465 1466 1464 1467 1469 1467 1469 1468 1466 1465 1464 1465 1467 1469 1470 1472 1475 1477 1478 1480 1481 1482 1483 1483 1484 1485 1486 1486 1487 1487 1488 1488 1487 1487 1488 1488 1488 1489 1489 1489 1489 1488 1488 1488 1488 1490 1491 1492 1493 1494 1495 1496 1496 1497 1498 1498 1501 1503 1504 1504 1504 1504 1504 1504 1505 1506 1507 1508
1484 1485 1482 1479 1478 1477 1478 1477 1476 1476 1476 1476 1475 1476 1475 1473 1476 1473 1468 1467 1465 1467 1469 1467 1468 1468 1464 1463 1463 1464 1466 1467 1470 1473 1477 1480 1481 1482 1483 1483 1484 1485 1486 1486 1487 1488 1488 1488 1488 1487 1487 1487 1487 1487 1488 1488 1487 1488 1488 1488 1488 1488 1488 1488 1489 1490 1492 1493 1494 1494 1495 1496 1497 1498 1501 1503 1503 1504 1505 1504 1504 1504 1503 1503 1504 1505
1483 1481 1479 1478 1478 1478 1478 1476 1475 1475 1474 1474 1473 1476 1476 1474 1480 1481 1474 1469 1465 1466 1468 1466 1467 1466 1463 1463 1462 1463 1465 1467 1472 1475 1478 1480 1482 1483 1485 1486 1487 1487 1488 1488 1488 1489 1488 1488 1488 1487 1487 1486 1486 1486 1486 1486 1485 1486 1487 1487 1486 1486 1487 1486 1487 1488 1489 1491 1491 1492 1494 1494 1495 1497 1499 1501 1502 1502 1504 1504 1503 1503 1501 1500 1500 1502
1478 1474 1477 1479 1478 1478 1478 1476 1473 1474 1474 1470 1468 1472 1475 1473 1473 1474 1471 1468 1465 1464 1464 1466 1473 1470 1466 1469 1468 1465 1465 1468 1472 1475 1478 1481 1482 1484 1486 1487 1488 1488 1488 1489 1489 1488 1488 1487 1487 1486 1486 1485 1485 1485 1484 1484 1484 1484 1485 1485 1484 1484 1485 1485 1485 1486 1487 1488 1489 1489 1491 1492 1492 1493 1495 1497 1499 1501 1501 1501 1501 1501 1500 1499 1498 1498
1476 1473 1478 1479 1477 1477 1477 1475 1472 1473 1476 1473 1467 1468 1470 1469 1468 1468 1468 1469 1472 1474 1468 1471 1485 1485 1475 1474 1473 1469 1467 1469 1473 1475 1477 1480 1481 1483 1485 1487 1488 1488 1488 1488 1488 1487 1486 1486 1486 1485 1484 1484 1483 1483 1483 1483 1482 1482 1482 1483 1482 1482 1482 1483 1483 1483 1484 1484 1485 1486 1488 1488 1488 1489 1491 1491 1494 1497 1499 1499 1498 1497 1497 1497 1496 1495
1474 1474 1479 1479 1478 1476 1476 1477 1473 1472 1478 1477 1468 1467 1469 1468 1469 1470 1470 1473 1478 1479 1473 1472 1485 1488 1483 1479 1474 1471 1471 1472 1475 1476 1477 1480 1482 1484 1486 1488 1489 1488 1487 1487 1487 1486 1485 1485 1484 1483 1483 1482 1482 1482 1481 1481 1481 1480 1480 1480 1480 1480 1479 1480 1480 1480 1480 1480 1480 1482 1484 1486 1486 1487 1488 1488 1489 1492 1494 1495 1495 1494 1494 1494 1494 1494
1475 1476 1478 1479 1479 1476 1478 1482 1477 1472 1479 1477 1467 1467 1470 1470 1471 1470 1470 1473 1473 1472 1472 1475 1478 1482 1487 1485 1475 1472 1474 1476 1478 1479 1480 1481 1484 1486 1487 1489 1489 1488 1488 1486 1486 1485 1484 1484 1483 1482 1482 1481 1481 1480 1480 1480 1479 1479 1478 1478 1478 1478 1477 1477 1477 1477 1477 1476 1476 1478 1479 1482 1485 1486 1487 1487 1487 1488 1489 1491 1493 1492 1492 1491 1491 1491
1475 1477 1477 1478 1479 1477 1477 1479 1473 1472 1478 1473 1466 1468 1470 1471 1471 1469 1470 1471 1469 1471 1477 1476 1474 1482 1491 1483 1472 1472 1475 1481 1484 1482 1482 1483 1484 1486 1487 1487 1487 1487 1487 1486 1485 1485 1484 1483 1482 1481 1481 1480 1479 1479 1478 1478 1478 1477 1477 1476 1476 1476 1476 1474 1474 1474 1474 1474 1474 1476 1477 1479 1482 1485 1487 1487 1486 1486 1486 1489 1491 1491 1490 1488 1487 1488
1475 1478 1478 1478 1479 1477 1475 1473 1471 1474 1476 1471 1469 1470 1469 1469 1469 1469 1471 1469 1470 1480 1483 1474 1469 1482 1495 1483 1474 1479 1481 1485 1486 1482 1482 1484 1485 1486 1486 1486 1486 1485 1486 1485 1484 1484 1483 1482 1481 1480 1479 1479 1478 1477 1477 1476 1476 1476 1475 1475 1474 1474 1475 1473 1472 1471 1470 1471 1471 1473 1475 1475 1478 1481 1484 1485 1485 1484 1484 1486 1489 1490 1489 1487 1485 1484
1475 1478 1480 1480 1479 1476 1475 1474 1472 1473 1473 1471 1471 1471 1468 1469 1471 1473 1475 1474 1481 1487 1478 1470 1466 1477 1491 1486 1479 1483 1483 1484 1484 1481 1483 1483 1484 1486 1485 1485 1486 1486 1486 1485 1484 1483 1482 1482 1481 1480 1478 1477 1477 1476 1475 1475 1474 1474 1473 1473 1473 1473 1473 1473 1471 1469 1468 1468 1468 1469 1471 1472 1474 1477 1479 1481 1481 1482 1482 1482 1484 1486 1487 1485 1482 1481
1475 1478 1480 1478 1478 1478 1476 1474 1470 1469 1470 1470 1470 1472 1475 1479 1480 1480 1482 1486 1493 1488 1471 1467 1468 1473 1484 1485 1481 1480 1478 1479 1480 1480 1482 1483 1484 1486 1484 1483 1484 1485 1486 1485 1485 1483 1482 1481 1480 1479 1478 1476 1475 1474 1473 1473 1472 1472 1471 1471 1471 1471 1471 1471 1471 1469 1468 1467 1466 1467 1468 1470 1471 1473 1475 1476 1476 1477 1479 1479 1479 1480 1482 1483 1481 1479
1477 1477 1477 1475 1476 1477 1477 1476 1473 1468 1467 1468 1467 1472 1481 1490 1493 1490 1490 1492 1490 1481 1470 1468 1470 1473 1479 1478 1476 1477 1476 1477 1479 1480 1483 1483 1484 1485 1482 1481 1480 1482 1485 1485 1485 1484 1482 1481 1480 1478 1477 1475 1474 1473 1472 1471 1470 1469 1469 1469 1469 1469 1469 1469 1469 1468 1467 1466 1465 1465 1466 1467 1468 1469 1470 1471 1472 1472 1474 1475 1476 1476 1477 1479 1479 1477
1479 1476 1474 1475 1476 1477 1477 1478 1480 1474 1470 1470 1469 1474 1481 1492 1504 1500 1491 1492 1492 1485 1475 1469 1470 1477 1481 1475 1471 1473 1475 1476 1479 1480 1483 1484 1483 1483 1482 1480 1478 1479 1483 1484 1484 1484 1483 1481 1480 1478 1476 1475 1473 1471 1470 1469 1468 1467 1467 1467 1467 1466 1466 1466 1467 1467 1466 1464 1464 1464 1464 1464 1465 1465 1466 1466 1466 1466 1467 1468 1470 1471 1473 1475 1477 1475
1485 1484 1476 1475 1477 1477 1475 1475 1478 1476 1473 1472 1467 1471 1478 1486 1499 1498 1487 1489 1491 1485 1477 1473 1473 1477 1481 1478 1471 1471 1474 1475 1478 1479 1481 1483 1482 1482 1482 1480 1479 1480 1481 1483 1483 1483 1483 1481 1480 1478 1476 1474 1472 1470 1469 1467 1466 1465 1464 1464 1464 1463 1463 1463 1464 1464 1464 1462 1461 1461 1461 1461 1461 1460 1461 1461 1460 1461 1462 1463 1464 1466 1468 1471 1473 1473
1487 1483 1472 1473 1475 1475 1475 1473 1473 1476 1477 1472 1465 1472 1480 1478 1481 1484 1482 1481 1483 1483 1479 1473 1471 1469 1472 1474 1469 1469 1474 1474 1477 1478 1478 1481 1481 1481 1482 1480 1480 1480 1481 1482 1482 1482 1482 1481 1479 1477 1475 1473 1471 1469 1467 1465 1464 1463 1462 1461 1461 1460 1460 1460 1460 1460 1460 1460 1458 1457 1457 1457 1457 1456 1456 1456 1455 1456 1458 1458 1459 1460 1462 1465 1469 1470
1489 1481 1470 1472 1473 1471 1474 1473 1472 1478 1481 1475 1473 1480 1479 1470 1472 1480 1482 1478 1480 1488 1481 1469 1471 1472 1473 1477 1471 1468 1473 1474 1475 1477 1477 1479 1481 1480 1481 1481 1480 1480 1480 1481 1482 1482 1481 1480 1478 1476 1474 1472 1469 1468 1466 1464 1462 1461 1460 1459 1458 1457 1457 1456 1457 1456 1456 1456 1454 1453 1452 1452 1452 1451 1451 1451 1450 1451 1452 1453 1454 1456 1457 1459 1462 1464
1487 1485 1474 1469 1470 1469 1472 1475 1473 1474 1476 1477 1480 1480 1474 1469 1472 1479 1485 1485 1485 1489 1479 1469 1478 1484 1480 1482 1479 1474 1476 1477 1476 1477 1477 1478 1479 1479 1480 1481 1480 1479 1479 1480 1481 1481 1480 1479 1478 1476 1474 1471 1469 1467 1464 1462 1460 1458 1457 1457 1455 1454 1454 1453 1453 1452 1452 1451 1450 1449 1448 1447 1447 1446 1446 1446 1445 1446 1447 1447 1448 1450 1452 1453 1455 1457
1484 1489 1478 1466 1466 1468 1471 1476 1476 1472 1472 1476 1476 1472 1473 1480 1481 1481 1487 1491 1491 1493 1486 1474 1478 1489 1489 1489 1489 1485 1481 1479 1477 1477 1478 1478 1478 1478 1479 1480 1480 1479 1479 1480 1481 1480 1479 1478 1477 1475 1473 1471 1468 1466 1463 1461 1458 1456 1455 1453 1453 1452 1451 1450 1449 1448 1448 1447 1446 1445 1444 1444 1443 1442 1441 1441 1441 1441 1441 1441 1443 1445 1447 1449 1451 1452
1484 1492 1487 1470 1465 1469 1472 1476 1481 1480 1475 1474 1473 1469 1470 1476 1479 1479 1481 1482 1486 1494 1494 1483 1480 1490 1495 1492 1490 1485 1478 1477 1478 1477 1478 1478 1478 1478 1479 1480 1479 1479 1480 1480 1480 1480 1478 1477 1476 1474 1472 1469 1467 1464 1461 1459 1456 1454 1452 1450 1449 1448 1447 1446 1445 1444 1443 1443 1442 1441 1440 1440 1440 1439 1437 1436 1437 1436 1435 1436 1438 1441 1442 1445 1447 1448
1483 1489 1490 1476 1469 1474 1477 1477 1481 1483 1480 1477 1478 1477 1475 1472 1471 1475 1475 1472 1479 1490 1495 1492 1487 1487 1486 1482 1480 1477 1475 1476 1477 1477 1478 1478 1478 1478 1479 1479 1479 1479 1480 1480 1480 1479 1477 1476 1475 1473 1471 1469 1466 1463 1460 1457 1454 1452 1449 1447 1446 1444 1444 1443 1442 1441 1440 1439 1438 1437 1436 1436 1436 1436 1435 1433 1431 1431 1431 1432 1434 1437 1439 1441 1442 1444
1484 1487 1490 1484 1478 1479 1475 1471 1474 1477 1476 1476 1478 1478 1477 1475 1475 1483 1483 1473 1473 1481 1488 1492 1490 1483 1477 1474 1472 1473 1474 1475 1475 1477 1478 1477 1478 1479 1479 1478 1478 1478 1479 1479 1479 1478 1477 1475 1473 1472 1470 1468 1464 1461 1458 1455 1452 1449 1447 1445 1443 1441 1440 1440 1439 1438 1437 1435 1434 1433 1432 1432 1432 1432 1432 1431 1428 1427 1428 1429 1430 1432 1434 1436 1437 1439
1488 1489 1492 1490 1483 1478 1471 1467 1471 1474 1473 1473 1475 1474 1474 1476 1478 1488 1491 1482 1478 1478 1477 1481 1484 1481 1475 1472 1472 1473 1473 1473 1474 1476 1477 1477 1478 1478 1478 1477 1478 1478 1478 1478 1477 1477 1476 1474 1473 1471 1469 1466 1463 1460 1457 1453 1450 1447 1444 1442 1440 1438 1437 1436 1436 1434 1433 1431 1430 1430 1429 1428 1428 1428 1427 1427 1426 1425 1425 1426 1427 1428 1428 1429 1433 1435
1491 1490 1492 1490 1481 1472 1467 1467 1470 1473 1475 1477 1476 1472 1474 1477 1477 1480 1482 1483 1486 1483 1478 1481 1483 1479 1474 1471 1470 1471 1471 1472 1474 1474 1476 1477 1477 1477 1477 1477 1477 1478 1477 1476 1476 1475 1475 1474 1472 1471 1468 1465 1462 1459 1455 1452 1448 1444 1441 1439 1437 1435 1433 1433 1432 1431 1429 1427 1426 1426 1426 1425 1424 1424 1423 1422 1422 1421 1420 1421 1422 1424 1424 1425 1428 1432
1494 1491 1492 1495 1490 1480 1476 1479 1481 1479 1480 1485 1483 1478 1477 1477 1477 1478 1477 1480 1486 1481 1480 1488 1486 1477 1474 1471 1468 1470 1470 1470 1473 1474 1475 1476 1476 1476 1476 1476 1477 1477 1476 1475 1474 1474 1473 1472 1471 1469 1467 1465 1461 1458 1454 1450 1446 1442 1438 1436 1434 1432 1430 1429 1428 1427 1425 1424 1423 1422 1423 1422 1421 1420 1419 1418 1417 1416 1415 1416 1416 1418 1421 1422 1423 1427
1495 1493 1493 1498 1499 1493 1488 1490 1490 1486 1483 1485 1484 1481 1479 1478 1479 1482 1481 1484 1487 1479 1476 1484 1483 1475 1472 1469 1467 1468 1468 1469 1472 1473 1474 1474 1474 1474 1473 1475 1476 1475 1474 1473 1472 1472 1472 1471 1470 1468 1466 1463 1461 1457 1453 1449 1445 1440 1436 1433 1431 1429 1427 1425 1424 1423 1422 1421 1419 1419 1419 1419 1418 1417 1415 1414 1413 1411 1410 1412 1412 1414 1417 1419 1418 1421
1495 1494 1493 1494 1496 1494 1489 1487 1485 1485 1485 1484 1482 1480 1479 1478 1478 1481 1484 1486 1484 1479 1478 1477 1475 1473 1469 1466 1467 1467 1466 1469 1471 1471 1473 1473 1473 1472 1472 1473 1474 1474 1473 1471 1470 1471 1470 1469 1468 1466 1464 1462 1460 1457 1453 1448 1444 1439 1434 1431 1428 1426 1424 1422 1421 1420 1418 1417 1416 1416 1416 1415 1415 1414 1412 1411 1409 1407 1406 1408 1410 1410 1412 1415 1415 1415
1494 1494 1491 1490 1491 1489 1487 1485 1483 1483 1484 1482 1480 1480 1478 1476 1476 1479 1484 1481 1478 1482 1482 1470 1467 1473 1471 1467 1469 1469 1467 1469 1470 1470 1472 1472 1471 1471 1470 1471 1472 1472 1472 1470 1469 1469 1468 1468 1467 1464 1463 1461 1458 1455 1451 1447 1443 1437 1432 1428 1425 1423 1422 1420 1418 1416 1415 1414 1413 1413 1413 1412 1412 1411 1410 1408 1406 1404 1403 1404 1406 1407 1408 1410 1411 1412
1492 1494 1490 1489 1490 1487 1483 1482 1479 1478 1477 1474 1475 1476 1475 1475 1476 1477 1479 1475 1474 1481 1480 1468 1468 1475 1473 1468 1469 1468 1468 1469 1469 1470 1471 1470 1469 1470 1470 1470 1471 1470 1469 1469 1469 1468 1467 1466 1465 1463 1462 1459 1457 1454 1449 1445 1440 1435 1430 1426 1422 1420 1419 1417 1415 1413 1412 1411 1410 1410 1410 1410 1410 1408 1407 1405 1403 1401 1400 1400 1401 1402 1404 1404 1406 1407
1493 1493 1489 1488 1488 1484 1480 1477 1473 1471 1471 1469 1470 1471 1471 1471 1472 1472 1473 1472 1472 1474 1472 1468 1469 1470 1469 1468 1467 1466 1468 1469 1468 1469 1469 1469 1469 1470 1470 1470 1469 1469 1468 1467 1467 1467 1466 1465 1464 1462 1461 1458 1455 1452 1448 1444 1439 1434 1428 1423 1420 1418 1415 1414 1412 1411 1410 1409 1408 1408 1408 1408 1407 1405 1403 1402 1400 1398 1396 1396 1397 1397 1398 1399 1401 1403
1495 1494 1487 1486 1488 1484 1478 1473 1470 1470 1471 1471 1470 1467 1466 1467 1467 1467 1468 1468 1469 1470 1468 1470 1472 1468 1465 1465 1465 1466 1467 1467 1467 1468 1468 1469 1470 1470 1470 1469 1469 1469 1468 1466 1467 1466 1465 1464 1462 1461 1459 1456 1454 1451 1447 1442 1437 1432 1427 1422 1418 1415 1413 1411 1410 1409 1408 1407 1407 1407 1407 1406 1405 1403 1401 1400 1398 1396 1393 1393 1393 1393 1393 1395 1396 1398
1495 1494 1487 1486 1489 1484 1476 1472 1470 1468 1470 1472 1470 1465 1464 1465 1465 1464 1463 1463 1465 1467 1467 1471 1474 1469 1463 1462 1464 1465 1466 1466 1467 1467 1468 1469 1469 1470 1469 1468 1468 1468 1467 1466 1465 1464 1464 1462 1461 1459 1457 1454 1451 1449 1446 1441 1436 1431 1426 1420 1416 1414 1412 1410 1408 1408 1407 1406 1405 1405 1404 1403 1402 1401 1399 1398 1396 1394 1392 1390 1390 1390 1390 1391 1392 1394
1491 1492 1489 1488 1491 1485 1476 1473 1470 1470 1475 1475 1468 1463 1463 1462 1463 1463 1462 1461 1462 1465 1468 1470 1468 1464 1461 1462 1464 1464 1465 1465 1466 1467 1467 1467 1468 1470 1469 1468 1467 1467 1466 1465 1464 1463 1463 1461 1459 1458 1456 1452 1450 1447 1444 1440 1436 1431 1426 1421 1417 1414 1411 1409 1408 1407 1406 1405 1404 1403 1402 1401 1400 1398 1397 1396 1395 1393 1390 1389 1388 1387 1386 1387 1389 1389
1488 1490 1490 1489 1491 1487 1479 1474 1474 1479 1483 1474 1462 1459 1460 1460 1462 1464 1463 1462 1462 1463 1464 1464 1461 1460 1462 1464 1465 1465 1465 1465 1465 1466 1465 1466 1467 1469 1468 1467 1467 1466 1465 1465 1464 1462 1461 1460 1458 1457 1454 1452 1449 1446 1443 1439 1435 1431 1427 1422 1417 1413 1411 1409 1407 1406 1405 1403 1402 1400 1399 1398 1397 1396 1396 1394 1393 1392 1389 1387 1387 1386 1384 1384 1385 1385
1487 1489 1489 1488 1489 1487 1480 1479 1486 1487 1476 1462 1456 1455 1455 1456 1459 1461 1462 1460 1459 1460 1460 1459 1459 1459 1461 1463 1464 1464 1464 1464 1465 1465 1464 1465 1467 1467 1467 1466 1465 1465 1465 1463 1462 1461 1460 1458 1457 1455 1453 1450 1447 1444 1441 1438 1434 1431 1427 1422 1417 1414 1411 1409 1407 1405 1403 1401 1399 1398 1397 1396 1394 1394 1394 1393 1391 1390 1389 1387 1387 1386 1384 1382 1382 1383
1485 1488 1489 1487 1486 1484 1482 1486 1490 1480 1463 1455 1456 1455 1454 1457 1459 1461 1463 1460 1457 1458 1458 1458 1459 1459 1461 1462 1463 1463 1464 1464 1464 1464 1464 1466 1466 1466 1466 1465 1464 1464 1464 1462 1461 1460 1458 1457 1456 1454 1451 1449 1446 1442 1439 1436 1433 1429 1426 1422 1418 1414 1411 1409 1407 1405 1402 1399 1397 1396 1395 1394 1393 1392 1391 1391 1390 1389 1388 1388 1387 1386 1384 1382 1382 1382
1480 1483 1485 1486 1484 1482 1483 1484 1480 1472 1465 1462 1459 1457 1458 1460 1459 1462 1466 1463 1457 1456 1456 1456 1457 1459 1460 1461 1462 1463 1465 1463 1462 1463 1465 1465 1466 1466 1465 1465 1464 1464 1463 1462 1461 1459 1457 1456 1454 1453 1451 1448 1445 1442 1439 1435 1432 1429 1425 1421 1417 1413 1410 1407 1405 1403 1400 1398 1396 1395 1394 1393 1392 1391 1389 1389 1388 1387 1386 1386 1386 1385 1384 1383 1382 1382
1477 1477 1480 1485 1485 1482 1483 1483 1479 1478 1475 1465 1459 1458 1459 1459 1459 1462 1465 1462 1455 1454 1455 1456 1457 1459 1460 1461 1462 1464 1464 1462 1460 1462 1464 1465 1465 1465 1464 1464 1464 1463 1462 1461 1460 1458 1457 1455 1453 1452 1450 1447 1444 1442 1438 1435 1431 1428 1425 1421 1417 1413 1410 1406 1403 1400 1398 1396 1394 1392 1391 1391 1390 1388 1387 1385 1384 1384 1383 1383 1383 1384 1383 1382 1382 1381
1476 1476 1478 1484 1487 1485 1486 1486 1483 1480 1471 1460 1456 1458 1458 1460 1460 1461 1465 1463 1457 1455 1457 1458 1459 1460 1461 1462 1463 1463 1463 1462 1460 1460 1462 1463 1463 1463 1463 1463 1463 1462 1461 1460 1459 1457 1456 1454 1453 1451 1449 1446 1444 1441 1438 1435 1432 1428 1425 1421 1417 1413 1409 1406 1402 1399 1396 1394 1392 1390 1389 1388 1387 1385 1384 1382 1381 1381 1381 1381 1381 1381 1381 1381 1380 1380
1478 1479 1481 1485 1487 1486 1486 1484 1478 1471 1463 1455 1454 1456 1457 1459 1461 1464 1469 1466 1459 1458 1460 1460 1460 1461 1461 1463 1463 1462 1463 1464 1462 1461 1462 1463 1463 1463 1462 1462 1461 1461 1460 1459 1458 1456 1455 1453 1452 1450 1448 1446 1443 1441 1438 1435 1432 1429 1425 1421 1417 1413 1409 1405 1402 1398 1395 1393 1391 1389 1387 1386 1384 1382 1380 1378 1377 1377 1378 1378 1378 1379 1379 1379 1379 1378
1478 1480 1482 1484 1485 1484 1484 1483 1477 1469 1460 1454 1453 1455 1457 1460 1463 1467 1469 1464 1460 1460 1460 1460 1461 1462 1462 1463 1463 1463 1463 1463 1463 1463 1463 1463 1463 1462 1461 1461 1460 1460 1459 1458 1456 1455 1454 1452 1451 1449 1447 1445 1442 1440 1438 1435 1433 1429 1425 1422 1418 1414 1409 1405 1401 1398 1395 1392 1390 1388 1385 1384 1382 1379 1377 1375 1374 1373 1374 1374 1375 1375 1376 1377 1378 1378
1476 1478 1480 1481 1481 1481 1480 1481 1479 1472 1461 1455 1455 1456 1459 1464 1465 1464 1462 1460 1460 1460 1459 1460 1461 1461 1462 1463 1463 1463 1463 1463 1463 1463 1462 1462 1461 1461 1460 1460 1459 1458 1458 1457 1455 1454 1453 1452 1450 1448 1446 1444 1442 1440 1437 1435 1432 1429 1425 1422 1418 1413 1409 1405 1401 1398 1394 1392 1389 1387 1384 1381 1379 1376 1374 1372 1371 1370 1370 1370 1371 1372 1373 1374 1375 1376
1471 1474 1475 1473 1474 1476 1477 1479 1479 1471 1460 1456 1457 1458 1460 1462 1461 1458 1458 1459 1459 1459 1459 1460 1460 1460 1461 1462 1462 1463 1462 1462 1462 1462 1462 1461 1460 1459 1459 1458 1458 1457 1456 1455 1455 1454 1452 1451 1449 1447 1445 1443 1441 1439 1437 1435 1432 1428 1425 1421 1417 1413 1408 1404 1401 1398 1395 1392 1389 1386 1383 1379 1376 1373 1371 1369 1368 1367 1367 1367 1367 1368 1369 1371 1372 1374
1469 1470 1472 1468 1466 1470 1474 1473 1469 1463 1457 1456 1458 1459 1458 1458 1456 1456 1458 1459 1458 1459 1459 1459 1458 1459 1461 1461 1462 1462 1461 1461 1461 1461 1460 1460 1459 1458 1458 1457 1456 1456 1455 1455 1454 1453 1452 1450 1448 1447 1445 1443 1441 1439 1436 1434 1431 1428 1424 1420 1416 1412 1407 1404 1402 1399 1395 1392 1389 1385 1382 1378 1374 1371 1369 1367 1366 1364 1364 1364 1364 1364 1366 1367 1368 1370
1469 1467 1469 1468 1465 1466 1467 1463 1459 1456 1456 1456 1457 1457 1457 1456 1456 1456 1457 1457 1457 1458 1458 1458 1458 1458 1460 1461 1461 1461 1460 1461 1460 1460 1459 1459 1458 1457 1456 1456 1455 1454 1454 1454 1454 1452 1451 1450 1448 1446 1444 1442 1440 1438 1436 1434 1431 1428 1424 1420 1415 1411 1407 1405 1402 1398 1394 1391 1388 1384 1381 1377 1372 1369 1367 1366 1364 1363 1362 1362 1362 1362 1363 1364 1365 1366
1466 1465 1467 1468 1465 1463 1461 1458 1456 1455 1455 1455 1456 1455 1455 1454 1454 1455 1455 1455 1456 1457 1457 1458 1458 1458 1459 1460 1460 1459 1459 1459 1459 1459 1458 1457 1457 1456 1455 1455 1454 1453 1453 1453 1453 1451 1450 1449 1447 1445 1444 1442 1440 1438 1436 1434 1431 1428 1425 1420 1415 1411 1409 1406 1402 1397 1394 1391 1387 1384 1380 1376 1372 1370 1367 1365 1364 1364 1363 1363 1362 1362 1361 1360 1361 1362
1466 1467 1468 1467 1467 1466 1462 1457 1454 1454 1455 1455 1455 1454 1453 1452 1452 1453 1453 1453 1454 1455 1456 1457 1457 1457 1458 1459 1459 1459 1459 1458 1458 1457 1457 1456 1456 1455 1454 1454 1453 1452 1453 1453 1452 1451 1449 1448 1446 1445 1443 1441 1439 1437 1436 1434 1431 1428 1425 1420 1416 1414 1411 1407 1402 1398 1394 1391 1387 1383 1380 1376 1372 1370 1368 1367 1366 1366 1365 1363 1362 1361 1360 1359 1358 1358
1468 1469 1469 1466 1465 1465 1462 1457 1454 1455 1454 1454 1454 1452 1451 1451 1450 1450 1451 1452 1452 1454 1454 1455 1456 1456 1457 1458 1458 1458 1458 1458 1457 1457 1456 1456 1456 1455 1454 1454 1453 1453 1453 1452 1451 1450 1448 1447 1445 1444 1442 1441 1439 1437 1436 1433 1430 1428 1424 1420 1418 1415 1411 1407 1403 1399 1395 1391 1387 1384 1380 1376 1373 1371 1370 1369 1368 1366 1365 1363 1362 1361 1360 1359 1358 1357
1469 1469 1467 1465 1463 1462 1459 1457 1455 1454 1452 1452 1452 1450 1449 1449 1449 1449 1450 1450 1450 1451 1452 1453 1454 1455 1456 1457 1457 1457 1457 1456 1456 1456 1455 1455 1455 1454 1453 1453 1453 1452 1452 1451 1450 1449 1447 1446 1445 1443 1442 1440 1438 1437 1436 1433 1430 1427 1424 1421 1418 1415 1412 1408 1404 1400 1396 1392 1388 1385 1381 1378 1375 1373 1372 1372 1370 1369 1367 1366 1364 1363 1362 1361 1359 1358
1469 1468 1465 1465 1464 1461 1458 1456 1454 1454 1452 1451 1451 1449 1449 1449 1449 1448 1449 1449 1449 1449 1450 1451 1453 1454 1454 1455 1455 1455 1455 1455 1454 1454 1454 1453 1454 1453 1453 1453 1452 1452 1451 1450 1449 1448 1446 1445 1444 1443 1442 1440 1438 1437 1436 1433 1430 1428 1424 1421 1419 1416 1412 1409 1405 1401 1397 1393 1389 1386 1383 1380 1377 1375 1375 1374 1374 1372 1371 1369 1368 1366 1364 1362 1361 1359
1466 1464 1463 1464 1462 1458 1455 1454 1453 1453 1452 1451 1450 1449 1448 1448 1448 1447 1447 1448 1448 1449 1449 1450 1451 1452 1453 1453 1454 1454 1453 1453 1452 1451 1451 1452 1453 1452 1452 1452 1451 1451 1450 1450 1449 1447 1446 1445 1443 1442 1441 1439 1438 1437 1436 1433 1431 1428 1425 1422 1420 1417 1414 1411 1407 1404 1400 1395 1392 1389 1386 1382 1380 1378 1376 1376 1376 1375 1373 1372 1370 1368 1367 1365 1363 1360